Weather History for KSHL - November, 2013

Change the Weather History Date:

Tuesday, November 5, 2013

  Actual Average Record
Temperature  
Mean Temperature 30 °F -  
Max Temperature 37 °F 48 °F 73 °F (2001)
Min Temperature 24 °F 28 °F 3 °F (1951)
Degree Days  
Heating Degree Days 34    
Moisture  
Dew Point 31 °F    
Average Humidity 99    
Maximum Humidity 100    
Minimum Humidity 87    
Precipitation  
Precipitation 0.18 in - - ()
Sea Level Pressure  
Sea Level Pressure 30.08 in    
Wind  
Wind Speed 7 mph (NNE)    
Max Wind Speed 24 mph    
Max Gust Speed 32 mph    
Visibility 6 miles    
Events Rain , Snow    
Averages and records for this station are not official NWS values.
T = Trace of Precipitation, MM = Missing Value Source: NWS Daily Summary

Daily Weather History Graph

Daily Weather History Graph

Search for Another Location

Airport or City:

Trip Planner

Search our weather history database for the weather conditions in past years. The results will help you decide how hot, cold, wet, or windy it might be!

Date:

Astronomy

Nov. 05, 2013 Rise Set
Actual Time 7:03 AM CST 5:09 PM CST
Civil Twilight 6:33 AM CST 5:39 PM CST
Nautical Twilight 5:59 AM CST 6:13 PM CST
Astronomical Twilight 5:26 AM CST 6:46 PM CST
Moon 9:22 AM CST (11/5) 7:09 PM CST (11/5)
Length of Visible Light 11h 05m
Length of Day
10h 05m
Waxing Crescent, 7% of the Moon is Illuminated
Nov 5
Waxing Crescent
Nov 9
First Quarter
Nov 17
Full
Nov 25
Last Quarter
Dec 2
New

Hourly Weather History & Observations

Time (CST) Temp. Windchill Dew Point Humidity Pressure Visibility Wind Dir Wind Speed Gust Speed Precip Events Conditions
12:15 AM 26.6 °F - 26.6 °F 100% 30.15 in 10.0 mi Calm Calm - N/A   Clear
12:35 AM 24.8 °F - 24.8 °F 100% 30.15 in 10.0 mi Calm Calm - N/A   Clear
12:55 AM 24.8 °F - 24.8 °F 100% 30.16 in 10.0 mi Calm Calm - N/A   Clear
1:15 AM 24.8 °F 20.5 °F 24.8 °F 100% 30.16 in 10.0 mi ENE 3.5 mph - N/A   Clear
1:35 AM 24.8 °F 19.1 °F 24.8 °F 100% 30.15 in 10.0 mi ENE 4.6 mph - N/A   Clear
1:55 AM 24.8 °F 19.1 °F 24.8 °F 100% 30.15 in 10.0 mi East 4.6 mph - N/A   Clear
2:15 AM - - - N/A% 30.16 in 10.0 mi Calm Calm - N/A   Clear
2:35 AM 24.8 °F 20.5 °F 24.8 °F 100% 30.16 in 10.0 mi SE 3.5 mph - N/A   Clear
2:55 AM 24.8 °F - 24.8 °F 100% 30.17 in 10.0 mi Calm Calm - N/A   Clear
3:15 AM 24.8 °F - 24.8 °F 100% 30.17 in 10.0 mi Calm Calm - N/A   Clear
3:35 AM 24.8 °F - 24.8 °F 100% 30.17 in 10.0 mi Calm Calm - N/A   Clear
3:55 AM 24.8 °F 19.1 °F 24.8 °F 100% 30.16 in 10.0 mi ENE 4.6 mph - N/A   Clear
4:15 AM 24.8 °F - 24.8 °F 100% 30.16 in 10.0 mi Calm Calm - N/A   Clear
4:35 AM - - - N/A% 30.16 in 10.0 mi East 3.5 mph - N/A   Scattered Clouds
4:55 AM 26.6 °F - 26.6 °F 100% 30.16 in 10.0 mi Calm Calm - N/A   Overcast
5:15 AM 28.4 °F 22.2 °F 28.4 °F 100% 30.15 in 10.0 mi NE 5.8 mph - N/A   Overcast
5:35 AM 28.4 °F 22.2 °F 28.4 °F 100% 30.16 in 10.0 mi ENE 5.8 mph - N/A   Overcast
5:55 AM 30.2 °F 23.4 °F 30.2 °F 100% 30.14 in 10.0 mi ENE 6.9 mph - N/A   Overcast
6:15 AM 30.2 °F 25.4 °F 30.2 °F 100% 30.16 in 10.0 mi East 4.6 mph - N/A   Mostly Cloudy
6:35 AM 30.2 °F 24.3 °F 30.2 °F 100% 30.15 in 10.0 mi ENE 5.8 mph - N/A   Mostly Cloudy
6:55 AM 30.2 °F 24.3 °F 30.2 °F 100% 30.15 in 10.0 mi NE 5.8 mph - N/A   Overcast
7:15 AM 30.2 °F 24.3 °F 30.2 °F 100% 30.15 in 10.0 mi NE 5.8 mph - N/A   Mostly Cloudy
7:35 AM 30.2 °F 23.4 °F 30.2 °F 100% 30.15 in 10.0 mi NE 6.9 mph - N/A   Partly Cloudy
7:55 AM 32.0 °F 26.4 °F 32.0 °F 100% 30.15 in 10.0 mi NE 5.8 mph - N/A   Partly Cloudy
8:15 AM 32.0 °F 24.2 °F 32.0 °F 100% 30.15 in 10.0 mi NE 9.2 mph - N/A   Mostly Cloudy
8:35 AM 33.8 °F 27.0 °F 33.8 °F 100% 30.14 in 10.0 mi NE 8.1 mph 13.8 mph N/A   Scattered Clouds
8:55 AM 35.6 °F 29.9 °F 35.6 °F 100% 30.15 in 10.0 mi NE 6.9 mph - N/A   Mostly Cloudy
9:15 AM 35.6 °F 31.7 °F 35.6 °F 100% 30.17 in 10.0 mi East 4.6 mph - N/A   Overcast
9:35 AM 35.6 °F 30.7 °F 35.6 °F 100% 30.17 in 10.0 mi East 5.8 mph - N/A   Overcast
9:55 AM 35.6 °F 31.7 °F 35.6 °F 100% 30.17 in 10.0 mi ENE 4.6 mph - N/A   Overcast
10:15 AM 35.6 °F 29.2 °F 35.6 °F 100% 30.17 in 10.0 mi NNE 8.1 mph - N/A   Overcast
10:35 AM 37.4 °F 30.8 °F 33.8 °F 87% 30.17 in 10.0 mi NNE 9.2 mph - N/A   Overcast
10:55 AM 37.4 °F 30.3 °F 35.6 °F 93% 30.17 in 10.0 mi NE 10.4 mph - N/A   Mostly Cloudy
11:15 AM 37.4 °F 30.8 °F 33.8 °F 87% 30.17 in 10.0 mi NE 9.2 mph - N/A   Mostly Cloudy
11:35 AM 37.4 °F 30.3 °F 33.8 °F 87% 30.14 in 10.0 mi NE 10.4 mph - N/A   Mostly Cloudy
11:55 AM 37.4 °F 29.8 °F 35.6 °F 93% 30.13 in 9.0 mi NE 11.5 mph - N/A Rain Light Rain
12:15 PM 37.4 °F 30.3 °F 37.4 °F 100% 30.10 in 7.0 mi ENE 10.4 mph - N/A Rain Light Rain
12:35 PM 37.4 °F 30.3 °F 37.4 °F 100% 30.08 in 9.0 mi ENE 10.4 mph - N/A Rain Light Rain
12:55 PM 37.4 °F 28.5 °F 37.4 °F 100% 30.06 in 6.0 mi ENE 15.0 mph - 0.01 in Rain Light Rain
1:15 PM 37.4 °F 28.9 °F 37.4 °F 100% 30.05 in 5.0 mi NE 13.8 mph 21.9 mph N/A   Clear
1:35 PM 35.6 °F 25.9 °F 35.6 °F 100% 30.04 in 2.5 mi NE 16.1 mph 24.2 mph N/A Snow Light Snow
1:55 PM 33.8 °F 24.8 °F 33.8 °F 100% 30.03 in 0.5 mi NNE 12.7 mph - 0.05 in Snow Light Snow
2:15 PM 33.8 °F 23.5 °F 33.8 °F 100% 30.02 in 0.5 mi NNE 16.1 mph - N/A Snow Light Snow
2:35 PM 33.8 °F 23.9 °F 33.8 °F 100% 30.00 in 0.5 mi NNE 15.0 mph 21.9 mph N/A Snow Light Snow
2:55 PM 33.8 °F 22.8 °F 33.8 °F 100% 29.99 in 0.5 mi North 18.4 mph - 0.02 in Snow Light Snow
3:15 PM 33.8 °F 21.3 °F 33.8 °F 100% 29.98 in 0.5 mi NNE 24.2 mph 32.2 mph N/A Snow Light Snow
3:35 PM 32.0 °F 19.5 °F 32.0 °F 100% 29.98 in 0.5 mi NNE 21.9 mph 28.8 mph N/A Snow Light Snow
3:55 PM 33.8 °F 22.8 °F 33.8 °F 100% 29.99 in 0.8 mi NNE 18.4 mph 26.5 mph 0.02 in Snow Light Snow
4:15 PM 33.8 °F 22.5 °F 33.8 °F 100% 29.98 in 1.5 mi NNE 19.6 mph - N/A Snow Light Snow
4:35 PM 33.8 °F 22.5 °F 33.8 °F 100% 29.97 in 1.0 mi NNE 19.6 mph 26.5 mph N/A Snow Light Snow
4:55 PM 32.0 °F 20.1 °F 32.0 °F 100% 29.96 in 0.5 mi NNE 19.6 mph 29.9 mph 0.01 in Snow Light Snow
5:15 PM 32.0 °F 20.5 °F 32.0 °F 100% 29.99 in 0.5 mi North 18.4 mph 25.3 mph N/A Snow Light Snow
5:35 PM 32.0 °F 20.5 °F 32.0 °F 100% 29.99 in 1.0 mi NNE 18.4 mph 25.3 mph N/A Snow Light Snow
5:55 PM 32.0 °F - 32.0 °F 100% 29.99 in 0.8 mi North - - 0.01 in Snow Light Snow
6:15 PM 32.0 °F 19.8 °F 32.0 °F 100% 29.98 in 0.5 mi NNE 20.7 mph - N/A Snow Light Snow
6:35 PM 32.0 °F 20.5 °F 32.0 °F 100% 29.99 in 1.0 mi NNE 18.4 mph 25.3 mph N/A Snow Light Snow
6:55 PM 32.0 °F 21.6 °F 32.0 °F 100% 29.99 in 1.5 mi North 15.0 mph 24.2 mph 0.02 in   Overcast
7:15 PM 32.0 °F 20.8 °F 32.0 °F 100% 29.99 in 1.8 mi North 17.3 mph 24.2 mph N/A Snow Light Snow
7:35 PM 32.0 °F 20.8 °F 32.0 °F 100% 30.00 in 1.8 mi North 17.3 mph 24.2 mph N/A   Overcast
7:55 PM 32.0 °F 21.6 °F 32.0 °F 100% 30.00 in 3.0 mi North 15.0 mph 20.7 mph 0.02 in Snow Light Snow
8:15 PM 32.0 °F 21.6 °F 32.0 °F 100% 30.01 in 2.0 mi North 15.0 mph 24.2 mph N/A   Overcast
8:35 PM 32.0 °F 21.6 °F 32.0 °F 100% 30.01 in 2.0 mi North 15.0 mph 21.9 mph N/A Snow Light Snow
8:55 PM - - - N/A% 30.01 in 1.8 mi North 15.0 mph 21.9 mph 0.01 in   Unknown
9:15 PM - - - N/A% 30.01 in 2.5 mi North 17.3 mph 24.2 mph N/A   Unknown
9:35 PM - - - N/A% 30.02 in 2.5 mi North 15.0 mph - N/A   Unknown
9:55 PM 32.0 °F 22.1 °F 32.0 °F 100% 30.03 in 4.0 mi North 13.8 mph 20.7 mph N/A Snow Light Snow
10:15 PM 32.0 °F 21.2 °F 32.0 °F 100% 30.03 in 5.0 mi North 16.1 mph - N/A Rain Light Rain
10:35 PM 32.0 °F 22.1 °F 32.0 °F 100% 30.03 in 4.0 mi North 13.8 mph - N/A Rain Light Rain
10:55 PM 32.0 °F 21.2 °F 32.0 °F 100% 30.02 in 5.0 mi North 16.1 mph - 0.01 in   Light Drizzle
11:15 PM 32.0 °F 21.2 °F 32.0 °F 100% 30.03 in 10.0 mi North 16.1 mph 25.3 mph N/A   Overcast
11:35 PM 30.2 °F 18.5 °F 30.2 °F 100% 30.04 in 10.0 mi North 17.3 mph 31.1 mph N/A   Overcast
11:55 PM 30.2 °F 17.8 °F 30.2 °F 100% 30.03 in 10.0 mi North 19.6 mph - N/A Rain Light Freezing Rain